This is the latest recevied weather packets stored in our database for station/object K7DC. If no packets are shown the sender has not sent any weather packets the latest 1 day(s).
| Time | Temp. | Humidity | Pressure | Rain* | Wind** | Luminosity | Snow |
|---|---|---|---|---|---|---|---|
| 1777989469 | 15° C | 79% | 1012.6 hPa | 0 mm | 0 m/s | 57 W/m² | - |
| 1777989166 | 15° C | 81% | 1012.6 hPa | 0 mm | 0 m/s | 68 W/m² | - |
| 1777988862 | 15° C | 82% | 1012.2 hPa | 0 mm | 0 m/s | 69 W/m² | - |
| 1777988560 | 14.44° C | 86% | 1012.1 hPa | 0 mm | 0 m/s | 67 W/m² | - |
| 1777988256 | 14.44° C | 86% | 1012.4 hPa | 0 mm | 0 m/s | 63 W/m² | - |
| 1777987952 | 13.89° C | 88% | 1012 hPa | 0 mm | 0 m/s | 56 W/m² | - |
| 1777987648 | 13.89° C | 90% | 1012 hPa | 0 mm | 0 m/s | 50 W/m² | - |
| 1777987346 | 13.89° C | 88% | 1012.1 hPa | 0 mm | 0 m/s | 44 W/m² | - |
| 1777987043 | 13.89° C | 89% | 1012.4 hPa | 0 mm | 0 m/s | 35 W/m² | - |
| 1777986740 | 13.89° C | 87% | 1011.9 hPa | 0 mm | 0 m/s | 30 W/m² | - |
| 1777986438 | 13.89° C | 88% | 1012.1 hPa | 0 mm | 0 m/s | 27 W/m² | - |
| 1777986137 | 13.89° C | 89% | 1011.9 hPa | 0 mm | 0 m/s | 23 W/m² | - |
| 1777985833 | 13.89° C | 89% | 1011.8 hPa | 0 mm | 0 m/s | 15 W/m² | - |
| 1777985530 | 13.89° C | 88% | 1011.8 hPa | 0 mm | 0 m/s | 11 W/m² | - |
| 1777985226 | 13.89° C | 87% | 1011.9 hPa | 0 mm | 0 m/s | 7 W/m² | - |
| 1777984923 | 13.89° C | 87% | 1011.6 hPa | 0 mm | 0 m/s | 4 W/m² | - |
| 1777984619 | 13.89° C | 87% | 1011.3 hPa | 0 mm | 0 m/s | 2 W/m² | - |
| 1777984316 | 13.89° C | 87% | 1011.7 hPa | 0 mm | 0.45 m/s, 195° | 1 W/m² | - |
| 1777984013 | 14.44° C | 87% | 1011.7 hPa | 0 mm | 0.45 m/s, 165° | 0 W/m² | - |
| 1777983710 | 14.44° C | 87% | 1011.6 hPa | 0 mm | 0.45 m/s, 267° | 0 W/m² | - |
| 1777983407 | 14.44° C | 88% | 1011.8 hPa | 0 mm | 0.45 m/s, 226° | 0 W/m² | - |
| 1777983103 | 14.44° C | 87% | 1011.3 hPa | 0 mm | 0 m/s | 0 W/m² | - |
| 1777982800 | 14.44° C | 87% | 1011.7 hPa | 0 mm | 0 m/s | 0 W/m² | - |
| 1777982496 | 14.44° C | 87% | 1011.8 hPa | 0 mm | 0.45 m/s, 229° | 0 W/m² | - |
| 1777982195 | 14.44° C | 86% | 1011.7 hPa | 0 mm | 0.45 m/s, 231° | 0 W/m² | - |
* Rain latest hour (hover to see other rain measurements)
** Current wind speed in m/s (hover to see current wind gust speed)